RH
96 84 38 16 14 11 10 9 8 8 7 6 6 6 7 7 7 7 7 6 7 7 7 8 9 9 9 9 9 9 9 10 12 12 12 13 14 14 14 16 20 26 25 23 24 21 28
95 96 95 54 19 16 13 12 10 9 8 8 7 7 6 6 6 6 6 6 6 6 7 6 6 8 8 9 8 10 10 10 12 15 14 14 17 16 15 15 16 18 24 24 22 25 29
96 95 89 95 94 88 78 20 14 12 10 10 9 8 8 7 7 7 6 6 6 6 6 6 6 5 6 6 7 6 7 7 8 8 11 15 15 17 17 17 16 16 19 23 25 25 29
97 96 96 96 96 95 96 96 69 28 15 15 12 11 10 9 8 8 8 7 7 6 6 6 7 7 6 5 6 5 6 6 6 7 8 10 11 14 16 18 19 17 17 20 31 22 28
96 97 98 100 98 96 96 94 92 89 60 59 20 16 14 13 12 11 10 10 9 8 7 7 7 7 6 6 7 10 6 6 6 6 6 8 9 10 11 14 17 21 19 45 22 24 26
97 96 97 98 100 91 95 92 89 82 86 87 76 21 15 15 16 18 15 13 12 11 10 10 9 9 10 8 9 15 13 9 7 7 7 7 8 9 9 10 14 43 34 22 21 68 25
61 50 93 78 96 98 96 87 85 90 94 93 88 88 84 67 55 24 17 28 23 20 16 13 11 12 11 10 10 10 10 10 9 9 8 9 9 8 10 11 11 12 17 17 22 25 26
11 20 32 23 29 76 97 94 84 88 80 82 89 90 83 83 86 63 37 51 63 48 21 16 19 19 18 17 19 22 18 24 21 17 21 23 19 15 17 13 12 13 13 16 20 23 23
11 9 9 6 18 50 95 97 94 90 81 85 80 85 78 83 82 79 77 76 70 63 43 32 39 45 55 69 64 53 48 56 61 46 32 30 38 37 23 22 23 24 27 38 53 29 30
30 20 11 6 6 14 31 88 81 93 88 81 75 78 73 71 77 70 70 73 73 75 69 67 68 66 59 59 67 61 59 59 53 50 70 74 65 47 37 35 39 37 41 48 60 46 33
30 35 27 17 8 5 9 26 44 77 89 88 81 82 74 77 69 64 67 67 72 79 64 58 50 58 65 61 61 62 64 68 70 71 75 76 68 62 53 57 55 59 55 48 36 31 31
25 29 38 27 17 9 5 6 17 36 49 58 71 63 67 74 83 80 74 70 94 85 74 62 59 64 70 72 86 83 78 69 68 63 59 75 74 72 68 63 64 66 62 55 53 52 65
20 24 29 40 25 13 6 5 6 14 26 34 45 58 62 69 80 84 79 75 85 72 82 80 70 79 81 82 80 80 85 76 62 66 66 69 70 64 57 55 56 57 55 53 85 100 94
20 23 30 30 39 24 9 6 5 6 14 21 50 51 48 48 55 80 93 86 63 62 87 71 78 85 93 84 83 75 84 76 74 68 50 39 58 62 62 65 70 65 53 49 74 100 90
21 24 25 31 40 38 16 8 5 6 10 11 46 32 46 49 77 93 100 77 54 63 92 88 87 93 91 87 89 88 87 81 74 57 57 48 26 27 39 49 59 66 64 43 39 26 58
22 23 24 27 37 50 35 12 7 6 7 8 19 29 38 59 66 80 86 71 88 95 92 91 85 92 98 93 97 98 91 79 85 80 71 66 37 26 19 19 26 38 38 48 57 40 70
26 25 25 28 40 55 52 30 10 7 8 8 9 12 36 91 87 64 47 65 79 98 100 94 82 94 88 96 98 98 99 72 73 73 67 62 38 33 26 24 26 60 39 29 38 46 72
28 28 26 28 46 44 63 52 22 10 8 8 8 11 20 78 55 42 74 73 65 84 100 100 100 100 96 94 98 96 94 76 73 55 33 35 28 34 30 26 28 37 32 26 30 40 49
28 27 27 33 42 65 72 72 38 21 10 9 9 10 10 27 35 60 97 83 67 88 100 99 99 97 98 96 99 98 97 65 56 46 28 33 54 77 82 79 82 70 84 43 16 24 54
26 26 26 32 48 63 85 90 70 33 19 10 10 10 10 10 22 44 85 89 79 88 88 95 95 92 91 96 100 96 97 88 73 47 31 30 31 58 78 65 27 16 13 16 31 49 53
24 26 32 48 74 78 93 100 86 53 30 18 12 10 11 10 10 15 25 76 72 83 80 90 97 100 98 99 97 97 95 92 87 70 57 51 42 34 32 36 23 13 14 27 27 23 12
26 27 37 33 60 86 94 100 100 71 41 28 20 14 12 12 12 12 18 23 66 58 65 50 65 76 85 89 91 95 97 96 87 84 65 40 33 32 32 33 17 14 21 23 16 12 13
36 28 38 60 77 76 98 100 99 94 71 39 28 21 17 14 14 14 13 14 16 62 46 38 38 26 36 49 45 80 77 72 47 38 34 32 33 29 25 30 17 17 19 16 18 16 12
79 32 24 46 90 89 97 100 100 100 98 66 37 28 22 18 17 17 18 17 15 15 65 45 32 37 38 56 68 96 88 61 55 51 39 30 30 26 20 17 17 19 17 19 17 14 14
90 79 31 33 67 100 100 100 100 100 100 98 54 38 28 23 20 21 21 20 20 20 16 38 69 20 27 39 43 38 39 60 54 50 39 29 27 24 18 18 20 18 16 18 19 17 15
84 74 46 34 70 86 100 100 100 100 100 100 97 56 42 31 25 25 25 24 25 26 27 25 22 36 65 66 31 40 45 47 48 49 38 30 27 22 22 24 23 20 17 24 23 18 20
65 63 62 45 64 75 96 99 100 100 100 100 100 99 67 44 36 30 30 29 29 30 33 33 32 31 31 35 45 57 59 58 50 39 34 30 28 26 30 24 22 18 22 28 26 22 28
87 80 88 78 88 87 100 98 100 100 100 100 100 100 98 84 50 43 40 38 38 37 37 36 38 40 48 53 55 52 46 46 44 39 32 27 26 27 30 27 22 23 30 29 30 20 17
87 89 75 91 100 100 97 95 100 100 100 100 100 100 100 98 89 70 62 52 48 47 45 43 46 54 59 62 58 47 44 42 37 35 33 30 29 29 27 26 27 33 39 35 28 21 18
Wind_Speed
51 67 65 60 57 57 56 55 54 53 52 51 49 48 46 45 44 42 40 39 37 34 34 34 32 31 31 31 30 29 28 26 25 24 23 22 21 21 19 19 19 23 23 21 21 21 17
46 46 63 61 54 56 58 57 55 54 52 52 50 48 47 45 45 44 42 40 38 37 35 35 35 33 34 35 32 31 31 31 30 28 26 25 25 23 23 22 21 24 26 25 25 24 20
43 38 34 47 48 49 60 61 59 55 54 52 51 50 48 47 45 44 43 41 40 38 37 37 35 34 36 36 35 34 34 33 33 33 31 28 28 27 26 26 24 25 25 28 28 26 24
48 42 39 43 43 41 39 55 64 60 53 55 53 51 49 47 45 44 43 42 41 40 38 38 37 35 37 36 36 35 36 36 34 35 33 31 31 30 28 29 26 26 25 25 36 27 25
39 43 42 43 45 43 43 43 46 53 60 57 54 52 51 50 47 45 44 44 42 42 41 40 38 37 38 37 36 36 38 38 35 35 33 32 30 30 29 30 28 28 24 26 33 33 31
46 44 47 47 47 52 51 49 48 49 51 55 55 55 52 52 50 49 50 45 45 44 44 41 42 39 38 38 39 37 40 39 36 34 33 31 29 29 28 30 25 24 29 26 27 36 31
64 64 51 54 49 49 47 49 50 46 44 47 52 53 56 58 57 50 49 46 47 49 47 43 44 40 39 40 39 36 35 35 32 31 30 31 29 27 31 33 29 29 31 28 30 34 38
64 61 60 59 57 61 56 51 55 52 51 46 49 46 45 46 48 50 53 54 54 53 46 44 43 41 41 41 39 37 33 33 32 31 33 34 30 33 31 31 32 31 30 28 31 35 36
63 61 61 57 57 57 53 50 43 52 55 53 48 49 41 41 42 44 43 44 45 49 50 48 49 51 48 50 50 46 43 47 47 42 38 41 36 39 30 30 30 30 30 29 33 34 37
67 65 63 59 57 55 56 54 45 39 47 48 52 49 45 44 43 41 37 37 36 38 42 42 43 42 36 37 38 34 39 37 39 39 39 42 34 37 33 33 37 38 37 38 37 37 35
70 68 65 61 57 54 53 53 51 46 42 37 37 40 44 47 47 46 43 39 40 40 41 41 37 35 35 34 35 34 33 35 33 31 33 31 37 34 34 35 36 33 35 34 31 33 34
70 68 66 64 60 56 53 51 51 48 47 42 37 39 43 41 44 44 41 44 40 41 45 44 42 38 34 32 32 32 28 27 28 29 28 26 34 28 30 32 30 32 28 29 30 31 32
72 68 67 66 63 59 55 52 49 51 48 43 38 31 34 39 42 42 41 39 36 42 45 47 44 41 38 35 33 32 29 26 24 22 22 19 20 20 18 16 15 15 16 19 16 18 22
74 71 67 66 65 61 58 54 52 48 45 42 39 33 32 32 33 35 36 38 43 45 41 44 39 38 33 26 26 23 22 22 21 19 17 15 17 16 13 12 15 18 17 18 20 16 18
75 71 71 67 67 64 62 58 54 49 46 44 43 40 34 32 34 37 39 41 40 39 34 38 34 32 29 26 24 21 23 25 23 21 20 16 22 18 21 21 20 21 22 22 25 27 25
77 73 72 70 68 67 64 61 56 52 49 47 47 44 35 29 28 36 43 44 44 46 39 35 40 33 31 26 27 27 27 29 29 28 25 25 22 20 19 21 23 24 27 25 27 28 26
76 73 72 70 69 69 67 64 59 57 53 52 50 46 38 31 30 34 33 38 45 47 46 38 39 39 36 30 32 33 35 32 30 29 27 29 25 27 19 22 25 23 30 26 24 26 29
76 72 72 70 70 69 68 65 61 60 58 55 54 49 42 38 37 35 33 34 35 44 43 42 42 42 42 40 38 39 39 37 31 29 28 29 27 20 26 23 25 27 30 26 26 28 28
75 74 73 70 70 70 69 67 61 60 60 58 54 52 47 47 43 34 32 33 33 38 48 56 54 55 52 47 46 44 41 33 33 30 28 26 24 22 24 21 21 23 15 20 27 26 28
74 76 75 71 69 69 68 65 64 61 60 60 57 55 51 51 48 42 34 30 27 30 39 48 50 50 52 53 53 47 40 41 39 32 27 24 24 24 24 26 29 29 26 24 24 26 28
73 76 74 72 72 71 69 64 64 62 61 62 60 57 54 52 51 48 39 36 29 28 25 27 30 39 37 39 32 43 43 46 42 38 31 28 29 30 26 27 28 29 23 23 26 27 31
74 73 73 74 71 71 69 67 64 62 63 62 61 58 55 54 51 50 47 42 33 34 30 28 25 21 22 24 23 27 34 33 33 37 30 32 32 31 26 28 29 27 22 24 26 27 30
70 73 72 71 70 71 70 65 64 64 64 60 59 58 56 56 52 51 48 45 41 35 33 31 30 32 33 30 37 35 30 29 29 31 33 32 30 31 27 28 31 25 22 26 27 27 28
63 67 70 70 69 72 71 66 62 62 62 62 62 60 57 56 54 51 47 44 43 40 38 35 34 36 35 35 35 30 29 30 31 31 32 31 31 31 29 29 31 26 23 27 27 28 28
66 67 68 67 68 69 70 67 65 63 63 63 63 61 59 56 54 52 50 48 44 44 44 41 40 39 38 36 36 34 32 33 31 33 32 32 31 31 30 31 31 29 25 29 30 27 30
68 71 69 67 66 67 68 67 61 61 61 64 65 60 60 58 57 55 52 49 47 47 43 41 40 41 40 37 37 38 37 36 37 35 32 31 31 31 31 31 33 30 27 31 31 32 31
61 62 64 65 66 67 66 66 62 60 59 60 63 62 61 59 59 57 53 50 49 48 46 45 44 40 39 38 39 40 38 39 38 34 31 32 32 32 32 35 33 26 32 31 33 34 32
64 60 56 55 65 65 66 67 62 58 59 59 58 63 63 63 60 57 54 52 50 50 49 47 46 44 43 42 42 41 41 42 38 34 35 32 35 34 35 35 33 29 33 32 35 37 35
67 60 61 55 60 64 64 66 63 57 56 56 58 58 60 64 62 58 55 52 50 49 49 50 48 45 44 42 41 42 42 41 39 38 36 37 35 36 36 32 30 33 36 37 38 38 39
Wind_Direction
240 228 228 229 230 231 233 233 235 238 238 240 242 243 245 250 252 255 257 259 260 260 264 267 267 268 269 271 273 274 274 272 273 274 275 277 276 277 276 275 275 277 284 289 293 300 303
241 243 234 223 233 234 234 236 236 236 238 241 241 244 246 248 251 254 256 258 259 262 263 265 269 270 271 271 273 272 272 275 274 271 275 274 275 276 275 272 270 272 279 285 289 295 295
237 239 234 226 235 238 242 237 237 236 238 239 241 243 244 246 250 253 256 257 258 259 260 263 262 265 269 272 272 275 275 273 274 276 274 274 274 274 276 276 273 273 275 282 280 283 289
231 227 235 238 241 245 244 240 230 236 243 245 244 243 244 246 247 250 254 256 258 260 260 260 261 261 265 267 271 273 275 273 274 275 275 274 273 273 276 276 275 274 276 280 281 280 279
224 220 234 238 241 247 247 251 244 239 232 241 243 245 246 246 247 248 251 254 256 258 260 261 260 262 262 264 263 274 277 276 276 274 274 273 270 274 275 274 275 279 267 268 279 279 278
238 233 230 236 247 254 249 247 247 244 243 245 247 243 244 245 248 250 251 252 255 258 259 261 265 266 267 266 265 262 270 276 275 274 275 272 273 273 271 269 266 249 270 268 268 282 278
237 246 236 248 246 242 243 246 244 243 247 248 247 247 249 250 252 250 251 252 254 257 261 265 263 266 269 269 266 269 270 272 274 277 274 273 274 270 263 267 272 266 266 269 268 271 276
235 241 242 246 249 250 251 248 245 245 244 251 248 246 251 252 251 253 254 259 259 260 256 261 265 267 270 272 273 270 271 278 279 275 275 277 272 267 275 269 269 267 265 266 268 270 280
234 236 241 242 243 245 246 245 243 245 245 246 249 249 252 251 252 251 255 257 259 257 258 261 264 267 268 268 271 269 270 275 278 273 274 274 274 273 267 268 268 270 267 271 274 277 282
235 234 236 239 241 242 243 243 246 245 245 243 249 249 250 254 251 255 254 255 258 260 261 266 261 265 267 269 270 274 271 272 269 276 275 272 269 265 264 265 269 272 273 273 272 274 277
234 235 236 237 238 242 244 244 245 244 245 251 256 251 251 248 249 253 253 256 260 266 264 264 264 263 268 266 271 268 274 271 273 273 268 273 268 263 269 272 274 274 272 274 274 274 277
231 234 235 237 236 238 241 243 245 247 249 253 257 260 248 249 250 252 256 256 258 262 262 258 265 263 265 268 263 266 275 276 267 264 266 261 268 275 273 272 274 275 280 280 282 282 280
234 232 235 235 236 236 239 241 242 243 244 242 245 250 251 251 254 254 254 255 258 258 256 259 263 265 266 263 259 267 269 268 260 257 260 261 264 274 275 279 280 281 285 286 285 276 302
231 234 231 234 235 236 236 237 240 240 242 239 235 243 242 243 245 247 256 262 254 254 249 261 263 267 272 264 267 269 256 251 246 235 245 251 274 255 265 276 288 290 284 285 285 278 258
231 231 234 233 234 234 235 234 235 237 236 236 238 244 240 240 238 244 241 248 251 252 251 256 260 258 256 268 253 248 242 241 234 231 242 253 259 266 269 275 277 280 276 284 293 294 299
232 231 232 232 232 233 235 235 233 233 234 234 234 239 244 235 232 236 239 244 241 244 250 252 254 254 251 261 246 240 238 237 235 237 247 255 266 265 270 271 272 271 279 283 294 300 294
231 232 232 232 231 232 232 233 232 230 231 232 234 235 237 238 235 241 242 247 250 247 252 253 251 253 249 260 244 231 230 234 235 241 249 255 261 272 273 269 274 273 282 281 288 288 291
228 230 231 231 230 231 231 232 232 230 229 229 231 232 229 234 240 247 250 247 249 248 240 236 244 249 253 261 242 222 227 234 235 242 249 254 262 272 273 285 275 274 274 285 285 285 291
224 227 228 228 228 228 228 229 231 230 228 229 228 230 227 231 238 241 242 250 247 241 236 234 244 247 249 258 244 236 233 234 238 242 245 251 262 269 273 277 279 281 278 287 293 292 289
223 223 225 226 227 227 228 227 228 229 228 229 227 228 226 228 231 233 232 238 246 239 240 241 244 248 252 253 246 244 237 229 229 239 246 253 259 261 261 259 277 284 288 293 289 286 283
221 221 223 223 221 222 223 225 226 226 226 227 228 227 226 227 231 234 234 230 227 234 236 239 237 237 238 234 240 244 239 240 234 233 242 252 262 266 267 267 273 277 288 284 286 287 289
222 220 220 221 222 224 226 222 221 222 225 226 228 228 227 230 229 231 231 232 228 227 228 232 239 240 239 241 245 244 242 241 244 242 246 257 267 269 270 269 273 277 279 282 285 291 296
224 223 221 219 220 222 222 222 223 224 226 226 228 229 228 229 228 229 231 235 233 232 228 235 226 234 237 236 240 239 244 243 250 254 263 263 268 268 267 272 274 279 283 284 289 293 293
222 222 223 222 219 220 220 221 222 222 224 225 227 227 228 230 230 229 231 232 236 234 234 232 231 234 237 239 250 249 245 242 247 259 265 267 268 269 271 272 274 278 283 285 289 288 292
222 221 222 221 222 221 221 220 220 222 221 222 223 225 226 225 226 229 230 232 231 232 230 232 237 242 243 244 249 256 259 258 260 263 266 266 265 269 272 271 275 284 289 288 289 292 295
223 225 224 220 218 221 221 221 221 220 221 221 222 223 224 224 223 225 226 226 228 233 233 235 232 235 240 244 245 249 253 257 261 262 265 265 265 266 268 269 275 282 285 287 291 291 296
225 228 225 221 218 219 220 222 220 221 220 224 222 218 221 223 225 225 226 227 229 231 233 233 236 236 237 239 245 252 254 256 258 263 256 258 262 265 265 271 278 284 286 285 287 292 295
222 225 225 221 215 218 219 219 219 220 221 220 223 222 219 221 224 223 225 228 228 231 233 234 235 236 237 238 245 251 253 253 255 258 260 259 261 263 267 274 279 282 283 283 284 289 295
219 222 228 226 217 215 217 219 220 218 220 221 219 222 225 223 221 221 225 224 226 228 232 235 235 236 240 242 243 247 250 252 254 253 256 258 262 264 265 272 277 281 281 282 287 292 297